EWG75A EDDH-LEPA

Flight info

Callsign EWG75A
Flight time 2h 11m
Altitude 38000
Route HABFU1G HABFU Y348 DOMEG DCT LIRSU DCT LIMGO/N0436F370 N852 SUTAL DCT GTQ DCT POGOL DCT LASAT DCT MOROK DCT GILIR DCT GEVEA DCT INCUS DCT BALSI DCT RETNO DCT TUPOX DCT MTG DCT DIVKO DCT VATIR N852 PIVUS DCT BODEQ N852 VERSO DCT LUNIK
Aircraft A319/M-SDE3FGHIRWY/LB1

Departure

Time 2026-04-21 07:43
Airport Hamburg Helmut Schmidt Airport (EDDH)

Arrival

Time 2026-04-21 09:55
Airport Palma de Mallorca Airport (LEPA)
Time Latitude Longitude Altitude Speed Heading
2026-04-21 07:04 53.63244 10.00014 49 ft 0 kts 322°
2026-04-21 07:34 53.63235 10.00026 48 ft 2 kts 319°
2026-04-21 07:35 53.63222 10.00044 49 ft 2 kts 315°
2026-04-21 07:35 53.63211 10.00064 48 ft 2 kts 300°
2026-04-21 07:35 53.63207 10.00090 51 ft 2 kts 239°
2026-04-21 07:35 53.63212 10.00104 51 ft 0 kts 230°
2026-04-21 07:36 53.63213 10.00105 51 ft 0 kts 230°
2026-04-21 07:38 53.63212 10.00104 51 ft 0 kts 230°
2026-04-21 07:39 53.63209 10.00098 51 ft 2 kts 230°
2026-04-21 07:39 53.63192 10.00060 48 ft 6 kts 232°
2026-04-21 07:40 53.63160 9.99990 51 ft 9 kts 232°
2026-04-21 07:40 53.63111 9.99900 50 ft 12 kts 210°
2026-04-21 07:40 53.63043 9.99914 50 ft 9 kts 156°
2026-04-21 07:40 53.62977 9.99973 50 ft 12 kts 151°
2026-04-21 07:41 53.62934 9.99999 50 ft 7 kts 182°
2026-04-21 07:41 53.62899 9.99936 50 ft 9 kts 252°
2026-04-21 07:41 53.62876 9.99818 50 ft 12 kts 249°
2026-04-21 07:41 53.62889 9.99725 47 ft 3 kts 341°
2026-04-21 07:42 53.62895 9.99719 49 ft 0 kts 329°
2026-04-21 07:42 53.62895 9.99718 49 ft 1 kts 329°
2026-04-21 07:43 53.63005 9.99622 49 ft 50 kts 333°
2026-04-21 07:43 53.63525 9.99180 51 ft 115 kts 333°
2026-04-21 07:43 53.64401 9.98426 62 ft 165 kts 335°
2026-04-21 07:43 53.65444 9.97557 700 ft 166 kts 338°
2026-04-21 07:44 53.66476 9.96687 1472 ft 169 kts 339°
2026-04-21 07:44 53.67589 9.95752 1878 ft 189 kts 340°
2026-04-21 07:44 53.68845 9.94716 2313 ft 213 kts 339°
2026-04-21 07:44 53.70206 9.93557 3113 ft 216 kts 337°
2026-04-21 07:45 53.71362 9.91904 4080 ft 229 kts 306°
2026-04-21 07:45 53.71749 9.89227 4746 ft 251 kts 265°
2026-04-21 07:45 53.71328 9.86208 5263 ft 276 kts 251°
2026-04-21 07:45 53.70645 9.83168 6115 ft 284 kts 248°
2026-04-21 07:46 53.69887 9.80063 7104 ft 288 kts 248°
2026-04-21 07:46 53.69136 9.76896 8044 ft 293 kts 249°
2026-04-21 07:46 53.68407 9.73639 8967 ft 299 kts 250°
2026-04-21 07:46 53.67701 9.70306 9872 ft 305 kts 251°
2026-04-21 07:47 53.67007 9.66892 10721 ft 311 kts 251°
2026-04-21 07:47 53.66268 9.63344 11139 ft 332 kts 246°
2026-04-21 07:47 53.65114 9.59864 11594 ft 347 kts 232°
2026-04-21 07:47 53.63482 9.56822 12322 ft 351 kts 218°
2026-04-21 07:48 53.61479 9.54465 13097 ft 352 kts 205°
2026-04-21 07:48 53.59312 9.52490 13933 ft 355 kts 205°
2026-04-21 07:48 53.57121 9.50492 14667 ft 359 kts 205°
2026-04-21 07:48 53.54913 9.48481 15353 ft 363 kts 205°
2026-04-21 07:49 53.53439 9.47139 15812 ft 366 kts 205°
2026-04-21 07:49 53.51184 9.45082 16497 ft 370 kts 205°
2026-04-21 07:49 53.48162 9.42324 17410 ft 375 kts 205°
2026-04-21 07:49 53.46609 9.40908 17873 ft 378 kts 205°
2026-04-21 07:50 53.43524 9.38100 18750 ft 384 kts 205°
2026-04-21 07:50 53.41930 9.36652 19150 ft 387 kts 205°
2026-04-21 07:50 53.39553 9.34497 19754 ft 390 kts 205°
2026-04-21 07:50 53.37180 9.32350 20366 ft 394 kts 205°
2026-04-21 07:51 53.34730 9.30134 20972 ft 398 kts 204°
2026-04-21 07:51 53.32240 9.28275 21551 ft 397 kts 194°
2026-04-21 07:51 53.29574 9.27122 22143 ft 395 kts 185°
2026-04-21 07:51 53.26853 9.26333 22734 ft 398 kts 185°
2026-04-21 07:52 53.24110 9.25532 23325 ft 402 kts 185°
2026-04-21 07:52 53.21343 9.24714 23905 ft 406 kts 185°
2026-04-21 07:52 53.18556 9.23820 24382 ft 412 kts 190°
2026-04-21 07:52 53.15836 9.22160 24862 ft 419 kts 198°
2026-04-21 07:53 53.13126 9.20325 25335 ft 422 kts 198°
2026-04-21 07:53 53.10404 9.18462 25816 ft 424 kts 198°
2026-04-21 07:53 53.07666 9.16582 26287 ft 427 kts 198°
2026-04-21 07:53 53.04908 9.14694 26751 ft 430 kts 198°
2026-04-21 07:54 53.02123 9.12797 27211 ft 433 kts 198°
2026-04-21 07:54 52.99323 9.10896 27662 ft 436 kts 198°
2026-04-21 07:54 52.96504 9.08985 28100 ft 439 kts 198°
2026-04-21 07:54 52.93660 9.07088 28548 ft 442 kts 198°
2026-04-21 07:55 52.90789 9.05219 28988 ft 445 kts 197°
2026-04-21 07:55 52.87930 9.03388 29423 ft 448 kts 197°
2026-04-21 07:55 52.85009 9.01531 29837 ft 451 kts 197°
2026-04-21 07:55 52.82068 8.99656 30255 ft 455 kts 198°
2026-04-21 07:56 52.79114 8.97760 30618 ft 457 kts 198°
2026-04-21 07:56 52.76140 8.95845 30962 ft 460 kts 198°
2026-04-21 07:56 52.73151 8.93917 31298 ft 462 kts 198°
2026-04-21 07:56 52.70142 8.91979 31622 ft 464 kts 198°
2026-04-21 07:57 52.67124 8.90037 31961 ft 466 kts 199°
2026-04-21 07:57 52.64105 8.88093 32417 ft 465 kts 199°
2026-04-21 07:57 52.61104 8.86163 32898 ft 463 kts 200°
2026-04-21 07:57 52.58107 8.84244 33368 ft 461 kts 200°
2026-04-21 07:58 52.55118 8.82340 33833 ft 460 kts 200°
2026-04-21 07:58 52.52135 8.80443 34291 ft 459 kts 200°
2026-04-21 07:58 52.49158 8.78553 34678 ft 458 kts 200°
2026-04-21 07:58 52.46183 8.76671 35019 ft 458 kts 200°
2026-04-21 07:59 52.43209 8.74789 35324 ft 458 kts 201°
2026-04-21 07:59 52.40232 8.72903 35624 ft 459 kts 201°
2026-04-21 07:59 52.37255 8.71017 35929 ft 459 kts 201°
2026-04-21 07:59 52.34276 8.69133 36222 ft 459 kts 201°
2026-04-21 08:00 52.31336 8.67282 36525 ft 459 kts 201°
2026-04-21 08:00 52.28354 8.65412 36818 ft 459 kts 201°
2026-04-21 08:00 52.25373 8.63544 37102 ft 459 kts 201°
2026-04-21 08:00 52.22390 8.61667 37277 ft 460 kts 201°
2026-04-21 08:01 52.16427 8.57911 37313 ft 458 kts 201°
2026-04-21 08:02 52.07503 8.52337 37306 ft 458 kts 201°
2026-04-21 08:02 52.01545 8.48650 37293 ft 458 kts 201°
2026-04-21 08:03 51.95591 8.44962 37303 ft 457 kts 202°
2026-04-21 08:03 51.89651 8.41284 37304 ft 457 kts 201°
2026-04-21 08:04 51.83706 8.37621 37305 ft 457 kts 201°
2026-04-21 08:04 51.77802 8.33988 37302 ft 457 kts 201°
2026-04-21 08:05 51.71861 8.30340 37294 ft 457 kts 202°
2026-04-21 08:05 51.65917 8.26702 37274 ft 457 kts 202°
2026-04-21 08:06 51.59969 8.23070 37275 ft 457 kts 202°
2026-04-21 08:06 51.54018 8.19460 37272 ft 457 kts 201°
2026-04-21 08:07 51.48063 8.15847 37262 ft 457 kts 202°
2026-04-21 08:07 51.42115 8.12246 37262 ft 457 kts 202°
2026-04-21 08:08 51.36153 8.08655 37270 ft 457 kts 202°
2026-04-21 08:08 51.30191 8.05077 37257 ft 457 kts 202°
2026-04-21 08:09 51.24276 8.01530 37256 ft 457 kts 202°
2026-04-21 08:09 51.18327 7.97963 37261 ft 456 kts 202°
2026-04-21 08:10 51.12380 7.94414 37254 ft 456 kts 202°
2026-04-21 08:10 51.06401 7.90865 37242 ft 463 kts 202°
2026-04-21 08:11 51.00291 7.87233 37242 ft 473 kts 202°
2026-04-21 08:11 50.94095 7.83573 37237 ft 475 kts 202°
2026-04-21 08:12 50.87888 7.79921 37236 ft 476 kts 202°
2026-04-21 08:12 50.81678 7.76279 37234 ft 476 kts 202°
2026-04-21 08:13 50.75460 7.72636 37234 ft 476 kts 202°
2026-04-21 08:13 50.69293 7.69019 37234 ft 476 kts 202°
2026-04-21 08:14 50.63080 7.65392 37239 ft 476 kts 202°
2026-04-21 08:14 50.56864 7.61778 37240 ft 476 kts 202°
2026-04-21 08:15 50.50770 7.58246 37236 ft 476 kts 202°
2026-04-21 08:15 50.44732 7.54761 37270 ft 475 kts 201°
2026-04-21 08:16 50.38547 7.51200 37233 ft 476 kts 203°
2026-04-21 08:16 50.32319 7.47621 37223 ft 477 kts 203°
2026-04-21 08:17 50.26089 7.44045 37219 ft 477 kts 202°
2026-04-21 08:17 50.19860 7.40473 37220 ft 477 kts 203°
2026-04-21 08:18 50.13627 7.36918 37208 ft 477 kts 203°
2026-04-21 08:18 50.07385 7.33378 37193 ft 477 kts 203°
2026-04-21 08:19 50.01152 7.29843 37174 ft 477 kts 203°
2026-04-21 08:19 49.94915 7.26320 37178 ft 477 kts 204°
2026-04-21 08:20 49.88726 7.22830 37199 ft 476 kts 203°
2026-04-21 08:20 49.82488 7.19319 37204 ft 476 kts 203°
2026-04-21 08:21 49.76257 7.15824 37198 ft 476 kts 203°
2026-04-21 08:21 49.70026 7.12344 37197 ft 476 kts 204°
2026-04-21 08:22 49.63798 7.08869 37187 ft 476 kts 204°
2026-04-21 08:22 49.57565 7.05399 37189 ft 476 kts 204°
2026-04-21 08:23 49.51345 7.01947 37169 ft 475 kts 204°
2026-04-21 08:23 49.45114 6.98495 37182 ft 475 kts 204°
2026-04-21 08:24 49.38931 6.95089 37183 ft 475 kts 204°
2026-04-21 08:24 49.32711 6.91660 37185 ft 475 kts 204°
2026-04-21 08:25 49.26545 6.88062 37181 ft 474 kts 206°
2026-04-21 08:25 49.20411 6.84375 37193 ft 473 kts 206°
2026-04-21 08:26 49.14269 6.80729 37193 ft 473 kts 205°
2026-04-21 08:26 49.08119 6.77140 37173 ft 473 kts 206°
2026-04-21 08:27 49.01951 6.73556 37208 ft 473 kts 205°
2026-04-21 08:27 48.95445 6.71501 37195 ft 485 kts 186°
2026-04-21 08:28 48.88687 6.71230 37175 ft 485 kts 185°
2026-04-21 08:28 48.81933 6.70971 37158 ft 485 kts 186°
2026-04-21 08:29 48.75177 6.70707 37169 ft 486 kts 186°
2026-04-21 08:29 48.68421 6.70441 37167 ft 486 kts 186°
2026-04-21 08:30 48.61664 6.70175 37153 ft 486 kts 186°
2026-04-21 08:30 48.54908 6.69911 37157 ft 486 kts 186°
2026-04-21 08:31 48.48195 6.69651 37153 ft 486 kts 186°
2026-04-21 08:31 48.41392 6.69393 37134 ft 486 kts 186°
2026-04-21 08:32 48.34676 6.69130 37134 ft 486 kts 186°
2026-04-21 08:32 48.27903 6.68863 37128 ft 486 kts 186°
2026-04-21 08:33 48.21140 6.68619 37105 ft 487 kts 187°
2026-04-21 08:33 48.14356 6.68367 37103 ft 488 kts 187°
2026-04-21 08:34 48.07551 6.68099 37098 ft 489 kts 187°
2026-04-21 08:34 48.00752 6.67840 37079 ft 489 kts 187°
2026-04-21 08:35 47.93939 6.67588 37087 ft 490 kts 187°
2026-04-21 08:35 47.88275 6.67372 37097 ft 490 kts 187°
2026-04-21 08:36 47.81457 6.67108 37061 ft 490 kts 187°
2026-04-21 08:36 47.74647 6.66847 37109 ft 489 kts 187°
2026-04-21 08:37 47.67847 6.66597 37120 ft 488 kts 187°
2026-04-21 08:37 47.61056 6.66342 37124 ft 488 kts 187°
2026-04-21 08:38 47.54281 6.66102 37124 ft 486 kts 187°
2026-04-21 08:38 47.47529 6.65853 37131 ft 485 kts 187°
2026-04-21 08:39 47.40992 6.64285 37126 ft 469 kts 205°
2026-04-21 08:39 47.35324 6.59985 37110 ft 451 kts 223°
2026-04-21 08:40 47.30562 6.54090 37099 ft 446 kts 227°
2026-04-21 08:40 47.25827 6.48167 37091 ft 446 kts 226°
2026-04-21 08:41 47.21115 6.42305 37090 ft 446 kts 226°
2026-04-21 08:41 47.16382 6.36407 37071 ft 446 kts 226°
2026-04-21 08:42 47.11655 6.30521 37072 ft 445 kts 226°
2026-04-21 08:42 47.06475 6.25411 37075 ft 458 kts 210°
2026-04-21 08:43 47.00196 6.23075 37044 ft 475 kts 191°
2026-04-21 08:43 46.93610 6.22214 37047 ft 475 kts 191°
2026-04-21 08:44 46.87015 6.21341 37051 ft 475 kts 191°
2026-04-21 08:44 46.80468 6.20467 37054 ft 476 kts 191°
2026-04-21 08:45 46.73883 6.19594 37045 ft 475 kts 191°
2026-04-21 08:45 46.67294 6.18724 37059 ft 475 kts 191°
2026-04-21 08:46 46.60707 6.17849 37062 ft 475 kts 191°
2026-04-21 08:46 46.54113 6.16988 37069 ft 475 kts 191°
2026-04-21 08:47 46.47528 6.16124 37073 ft 475 kts 191°
2026-04-21 08:47 46.40991 6.15261 37075 ft 475 kts 191°
2026-04-21 08:48 46.34413 6.14395 37080 ft 474 kts 191°
2026-04-21 08:48 46.27841 6.13540 37088 ft 474 kts 191°
2026-04-21 08:49 46.21297 6.12521 37096 ft 471 kts 194°
2026-04-21 08:49 46.14828 6.11039 37084 ft 469 kts 195°
2026-04-21 08:50 46.08395 6.09451 37069 ft 469 kts 195°
2026-04-21 08:50 46.01941 6.07961 37065 ft 469 kts 194°
2026-04-21 08:51 45.95525 6.06570 37053 ft 469 kts 194°
2026-04-21 08:51 45.89075 6.05177 37064 ft 469 kts 194°
2026-04-21 08:51 45.85861 6.04475 37266 ft 466 kts 194°
2026-04-21 08:52 45.82655 6.03770 37535 ft 466 kts 194°
2026-04-21 08:52 45.79444 6.03059 37795 ft 466 kts 195°
2026-04-21 08:52 45.76246 6.02347 38008 ft 466 kts 195°
2026-04-21 08:53 45.69835 6.00921 38054 ft 466 kts 195°
2026-04-21 08:53 45.63421 5.99509 38056 ft 466 kts 194°
2026-04-21 08:54 45.57014 5.98114 38058 ft 465 kts 194°
2026-04-21 08:54 45.50616 5.96720 38052 ft 465 kts 194°
2026-04-21 08:55 45.44245 5.95189 38041 ft 463 kts 197°
2026-04-21 08:55 45.37965 5.93192 38017 ft 461 kts 199°
2026-04-21 08:56 45.31712 5.91080 38009 ft 462 kts 199°
2026-04-21 08:56 45.25430 5.89068 38013 ft 463 kts 198°
2026-04-21 08:57 45.19128 5.87131 38000 ft 464 kts 198°
2026-04-21 08:57 45.12857 5.85218 38002 ft 464 kts 198°
2026-04-21 08:58 45.06546 5.83273 38002 ft 464 kts 198°
2026-04-21 08:58 45.00231 5.81314 37985 ft 464 kts 198°
2026-04-21 08:59 44.93916 5.79363 37993 ft 464 kts 198°
2026-04-21 08:59 44.87600 5.77426 37994 ft 464 kts 198°
2026-04-21 09:00 44.81276 5.75489 37983 ft 464 kts 198°
2026-04-21 09:00 44.74965 5.73565 37998 ft 464 kts 198°
2026-04-21 09:01 44.68661 5.71654 37981 ft 463 kts 198°
2026-04-21 09:01 44.62355 5.69734 37979 ft 463 kts 198°
2026-04-21 09:02 44.56055 5.67820 37991 ft 463 kts 198°
2026-04-21 09:02 44.49761 5.65908 37977 ft 463 kts 198°
2026-04-21 09:03 44.40366 5.63064 37973 ft 462 kts 198°
2026-04-21 09:03 44.34325 5.60340 37975 ft 454 kts 207°
2026-04-21 09:04 44.28451 5.57105 37946 ft 453 kts 207°
2026-04-21 09:04 44.22584 5.53889 37951 ft 453 kts 207°
2026-04-21 09:05 44.16708 5.50691 37958 ft 453 kts 207°
2026-04-21 09:05 44.10829 5.47497 37964 ft 453 kts 207°
2026-04-21 09:06 44.04994 5.44329 37951 ft 452 kts 207°
2026-04-21 09:06 43.99131 5.41146 37954 ft 452 kts 207°
2026-04-21 09:07 43.93256 5.37967 37952 ft 452 kts 207°
2026-04-21 09:07 43.87396 5.34796 37933 ft 452 kts 207°
2026-04-21 09:08 43.81539 5.31631 37942 ft 452 kts 207°
2026-04-21 09:08 43.75715 5.28494 37953 ft 451 kts 207°
2026-04-21 09:09 43.69825 5.25340 37932 ft 451 kts 207°
2026-04-21 09:09 43.64015 5.22226 37951 ft 450 kts 207°
2026-04-21 09:10 43.58170 5.19087 37959 ft 450 kts 207°
2026-04-21 09:10 43.52340 5.15966 37962 ft 450 kts 207°
2026-04-21 09:11 43.46496 5.12863 37960 ft 449 kts 207°
2026-04-21 09:11 43.40675 5.09769 37964 ft 448 kts 208°
2026-04-21 09:12 43.35356 5.05589 37961 ft 437 kts 220°
2026-04-21 09:12 43.30351 5.00848 37942 ft 437 kts 220°
2026-04-21 09:13 43.25334 4.96144 37956 ft 437 kts 220°
2026-04-21 09:13 43.20312 4.91442 37953 ft 436 kts 220°
2026-04-21 09:14 43.15332 4.86779 37966 ft 436 kts 220°
2026-04-21 09:14 43.10315 4.82083 37945 ft 436 kts 220°
2026-04-21 09:15 43.05276 4.77446 37962 ft 439 kts 216°
2026-04-21 09:15 42.99931 4.73379 37972 ft 440 kts 214°
2026-04-21 09:16 42.94579 4.69324 37975 ft 440 kts 214°
2026-04-21 09:16 42.89229 4.65271 37969 ft 440 kts 214°
2026-04-21 09:17 42.83878 4.61223 37969 ft 440 kts 214°
2026-04-21 09:17 42.78521 4.57190 37968 ft 440 kts 214°
2026-04-21 09:18 42.73163 4.53162 37977 ft 440 kts 214°
2026-04-21 09:18 42.67803 4.49145 37981 ft 440 kts 214°
2026-04-21 09:19 42.62439 4.45123 37980 ft 440 kts 214°
2026-04-21 09:19 42.57087 4.41115 37983 ft 440 kts 214°
2026-04-21 09:20 42.51714 4.37111 37966 ft 440 kts 214°
2026-04-21 09:20 42.47255 4.33788 37971 ft 440 kts 214°
2026-04-21 09:21 42.41892 4.29808 37982 ft 440 kts 214°
2026-04-21 09:21 42.36558 4.25765 37975 ft 439 kts 214°
2026-04-21 09:22 42.31178 4.21803 37968 ft 440 kts 213°
2026-04-21 09:22 42.25798 4.17873 37970 ft 440 kts 213°
2026-04-21 09:23 42.20423 4.13921 37979 ft 440 kts 213°
2026-04-21 09:23 42.15052 4.09963 37985 ft 440 kts 213°
2026-04-21 09:24 42.09683 4.06021 37975 ft 440 kts 213°
2026-04-21 09:24 42.04307 4.02079 37980 ft 440 kts 213°
2026-04-21 09:25 41.98930 3.98140 37985 ft 440 kts 213°
2026-04-21 09:25 41.93501 3.94319 37984 ft 443 kts 207°
2026-04-21 09:26 41.87473 3.92234 37969 ft 452 kts 194°
2026-04-21 09:26 41.81277 3.90821 37977 ft 452 kts 194°
2026-04-21 09:27 41.75117 3.89390 37984 ft 452 kts 194°
2026-04-21 09:27 41.68923 3.87952 37977 ft 452 kts 194°
2026-04-21 09:28 41.62733 3.86529 37981 ft 452 kts 194°
2026-04-21 09:28 41.56535 3.85111 37988 ft 452 kts 194°
2026-04-21 09:29 41.50337 3.83693 37993 ft 452 kts 194°
2026-04-21 09:29 41.44140 3.82272 37985 ft 452 kts 194°
2026-04-21 09:30 41.37935 3.80839 37990 ft 452 kts 194°
2026-04-21 09:30 41.31741 3.79419 37991 ft 452 kts 194°
2026-04-21 09:31 41.25536 3.78022 37989 ft 452 kts 193°
2026-04-21 09:31 41.19331 3.76622 37996 ft 452 kts 194°
2026-04-21 09:32 41.13298 3.74686 37993 ft 445 kts 205°
2026-04-21 09:32 41.07534 3.71693 37996 ft 445 kts 205°
2026-04-21 09:33 41.01763 3.68709 37984 ft 445 kts 205°
2026-04-21 09:33 40.95984 3.65737 37988 ft 446 kts 205°
2026-04-21 09:34 40.90199 3.62777 37993 ft 446 kts 205°
2026-04-21 09:34 40.87305 3.61292 37863 ft 446 kts 205°
2026-04-21 09:34 40.84412 3.59813 37575 ft 445 kts 205°
2026-04-21 09:35 40.81521 3.58338 37298 ft 445 kts 205°
2026-04-21 09:35 40.78629 3.56861 37030 ft 446 kts 205°
2026-04-21 09:35 40.75740 3.55384 36509 ft 445 kts 205°
2026-04-21 09:35 40.72841 3.53901 35744 ft 448 kts 205°
2026-04-21 09:36 40.69921 3.52412 34914 ft 452 kts 204°
2026-04-21 09:36 40.66984 3.50917 34098 ft 455 kts 204°
2026-04-21 09:36 40.64031 3.49416 33147 ft 455 kts 204°
2026-04-21 09:36 40.61078 3.47920 32145 ft 453 kts 204°
2026-04-21 09:37 40.58136 3.46429 31139 ft 452 kts 204°
2026-04-21 09:37 40.55211 3.44945 30139 ft 450 kts 204°
2026-04-21 09:37 40.52314 3.43476 28869 ft 451 kts 204°
2026-04-21 09:37 40.49360 3.41978 27729 ft 448 kts 204°
2026-04-21 09:38 40.46420 3.40606 26536 ft 448 kts 199°
2026-04-21 09:38 40.43375 3.39747 25350 ft 449 kts 191°
2026-04-21 09:38 40.40244 3.39473 24187 ft 454 kts 182°
2026-04-21 09:38 40.37072 3.39642 23011 ft 458 kts 180°
2026-04-21 09:39 40.33922 3.39830 21733 ft 460 kts 180°
2026-04-21 09:39 40.30727 3.40015 20637 ft 458 kts 180°
2026-04-21 09:39 40.27560 3.40194 19631 ft 453 kts 180°
2026-04-21 09:39 40.24453 3.40367 19109 ft 434 kts 180°
2026-04-21 09:40 40.21546 3.40533 18882 ft 403 kts 180°
2026-04-21 09:40 40.18843 3.40691 18754 ft 375 kts 180°
2026-04-21 09:40 40.16329 3.40842 18636 ft 349 kts 180°
2026-04-21 09:40 40.13963 3.40985 18319 ft 334 kts 180°
2026-04-21 09:41 40.11672 3.41116 17716 ft 328 kts 180°
2026-04-21 09:41 40.09396 3.41239 17252 ft 326 kts 180°
2026-04-21 09:41 40.07138 3.41357 16856 ft 324 kts 180°
2026-04-21 09:41 40.04895 3.41475 16454 ft 322 kts 180°
2026-04-21 09:42 40.02665 3.41593 16057 ft 320 kts 180°
2026-04-21 09:42 40.00447 3.41716 15670 ft 318 kts 180°
2026-04-21 09:42 39.98219 3.41842 14942 ft 327 kts 180°
2026-04-21 09:42 39.95893 3.41970 13986 ft 342 kts 180°
2026-04-21 09:43 39.93465 3.42101 12883 ft 356 kts 180°
2026-04-21 09:43 39.90970 3.42237 12084 ft 359 kts 179°
2026-04-21 09:43 39.88481 3.42379 11439 ft 356 kts 179°
2026-04-21 09:43 39.86014 3.42523 10829 ft 353 kts 179°
2026-04-21 09:44 39.83587 3.42665 10434 ft 340 kts 178°
2026-04-21 09:44 39.81324 3.42797 10315 ft 313 kts 179°
2026-04-21 09:44 39.79210 3.42919 10074 ft 296 kts 179°
2026-04-21 09:44 39.77167 3.43033 9678 ft 292 kts 179°
2026-04-21 09:45 39.75150 3.43139 9334 ft 289 kts 179°
2026-04-21 09:45 39.73182 3.42763 8987 ft 286 kts 201°
2026-04-21 09:45 39.71509 3.41429 8636 ft 283 kts 224°
2026-04-21 09:45 39.70387 3.39355 8245 ft 281 kts 248°
2026-04-21 09:46 39.69993 3.36893 7865 ft 280 kts 270°
2026-04-21 09:46 39.70071 3.34363 7474 ft 280 kts 273°
2026-04-21 09:46 39.70158 3.31837 7119 ft 280 kts 273°
2026-04-21 09:46 39.70240 3.29315 6768 ft 279 kts 273°
2026-04-21 09:47 39.70318 3.26825 6404 ft 279 kts 273°
2026-04-21 09:47 39.70394 3.24314 6070 ft 278 kts 273°
2026-04-21 09:47 39.70469 3.21819 5736 ft 276 kts 272°
2026-04-21 09:47 39.70544 3.19331 5418 ft 275 kts 272°
2026-04-21 09:48 39.70620 3.16853 5087 ft 273 kts 272°
2026-04-21 09:48 39.70694 3.14391 4739 ft 273 kts 272°
2026-04-21 09:48 39.70768 3.11932 4398 ft 272 kts 272°
2026-04-21 09:48 39.70744 3.09489 4051 ft 270 kts 260°
2026-04-21 09:49 39.70126 3.07212 3726 ft 267 kts 239°
2026-04-21 09:49 39.69170 3.05164 3519 ft 261 kts 238°
2026-04-21 09:49 39.68232 3.03163 3270 ft 256 kts 237°
2026-04-21 09:49 39.67331 3.01238 3016 ft 243 kts 237°
2026-04-21 09:50 39.66471 2.99402 2769 ft 234 kts 237°
2026-04-21 09:50 39.66200 2.98824 2698 ft 230 kts 237°
2026-04-21 09:50 39.64109 2.94366 2541 ft 196 kts 237°
2026-04-21 09:51 39.63408 2.92874 2533 ft 191 kts 237°
2026-04-21 09:51 39.62721 2.91410 2520 ft 189 kts 237°
2026-04-21 09:51 39.62036 2.89954 2461 ft 191 kts 238°
2026-04-21 09:51 39.61353 2.88503 2187 ft 189 kts 237°
2026-04-21 09:52 39.60674 2.87062 1919 ft 187 kts 237°
2026-04-21 09:52 39.59986 2.85627 1689 ft 186 kts 237°
2026-04-21 09:52 39.59313 2.84191 1432 ft 185 kts 238°
2026-04-21 09:52 39.58675 2.82820 1203 ft 169 kts 238°
2026-04-21 09:53 39.58096 2.81581 1028 ft 154 kts 237°
2026-04-21 09:53 39.57549 2.80435 818 ft 145 kts 237°
2026-04-21 09:53 39.57031 2.79351 618 ft 138 kts 238°
2026-04-21 09:53 39.56554 2.78311 433 ft 135 kts 238°
2026-04-21 09:54 39.56072 2.77262 273 ft 135 kts 237°
2026-04-21 09:54 39.55590 2.76251 97 ft 133 kts 238°
2026-04-21 09:54 39.55129 2.75287 39 ft 116 kts 238°
2026-04-21 09:54 39.54787 2.74565 38 ft 69 kts 238°
2026-04-21 09:55 39.54621 2.74215 38 ft 30 kts 238°
2026-04-21 09:55 39.54553 2.73953 38 ft 26 kts 265°
2026-04-21 09:55 39.54552 2.73767 38 ft 10 kts 270°
2026-04-21 09:55 39.54552 2.73755 38 ft 0 kts 270°
2026-04-21 09:57 39.54551 2.73713 38 ft 11 kts 268°
2026-04-21 09:57 39.54528 2.73576 36 ft 18 kts 236°
2026-04-21 09:58 39.54455 2.73422 36 ft 22 kts 238°
2026-04-21 09:58 39.54388 2.73279 38 ft 9 kts 243°
2026-04-21 09:58 39.54414 2.73202 38 ft 11 kts 297°
2026-04-21 09:58 39.54396 2.73118 37 ft 7 kts 237°
2026-04-21 09:59 39.54426 2.73075 38 ft 8 kts 330°
2026-04-21 09:59 39.54438 2.73065 38 ft 2 kts 327°
2026-04-21 09:59 39.54445 2.73059 38 ft 0 kts 327°